Location: Poughquag
(41.6090°N, 73.6820°W)
Time: 12:34:00
(UTC-04:00)

Vanguard 2 - Pass Details

Date: 05 June 2020
Orbit: 552 x 2938 km, 32.9° (Epoch: 05 July)

Event Time Altitude Azimuth Distance (km) Brightness Sun altitude
Rises 19:17:35 0° 251° (WSW) 6,588 13.1 10.6°
Reaches altitude 10° 19:22:27 10° 247° (WSW) 5,357 12.6 9.7°
Maximum altitude 19:36:44 54° 177° (S) 2,259 9.9 7.3°
Drops below altitude 10° 19:45:39 10° 103° (ESE) 3,445 10.3 5.8°
Sets 19:48:06 0° 98° (E) 4,154 10.7 5.3°
